MAS7457 WBGG-WMKK

Flight info

Callsign MAS7457
Flight time 1h 41m
Altitude 36000
Route ESBAL1K AGOBA M761 KILOT N892 KIBOL/N0436F280 G334 SAROX SAROX1H
Aircraft B738/M-SDE2E3FGHIRWXY/LB1

Departure

Time 2026-04-15 02:21
Airport Kuching International Airport (WBGG)

Arrival

Time 2026-04-15 04:03
Airport Kuala Lumpur International Airport (WMKK)
Time Latitude Longitude Altitude Speed Heading
2026-04-15 02:05 1.48655 110.34238 77 ft 0 kts 338°
2026-04-15 02:09 1.48653 110.34239 77 ft 2 kts 338°
2026-04-15 02:10 1.48628 110.34248 67 ft 4 kts 339°
2026-04-15 02:10 1.48606 110.34257 66 ft 4 kts 353°
2026-04-15 02:10 1.48585 110.34252 66 ft 4 kts 56°
2026-04-15 02:10 1.48575 110.34234 72 ft 1 kts 68°
2026-04-15 02:11 1.48574 110.34230 66 ft 0 kts 68°
2026-04-15 02:13 1.48577 110.34239 70 ft 2 kts 69°
2026-04-15 02:13 1.48585 110.34259 67 ft 4 kts 68°
2026-04-15 02:14 1.48598 110.34292 68 ft 6 kts 68°
2026-04-15 02:14 1.48616 110.34336 77 ft 8 kts 70°
2026-04-15 02:14 1.48637 110.34390 69 ft 9 kts 67°
2026-04-15 02:14 1.48665 110.34453 70 ft 11 kts 65°
2026-04-15 02:15 1.48681 110.34501 69 ft 11 kts 73°
2026-04-15 02:15 1.48676 110.34574 72 ft 12 kts 140°
2026-04-15 02:15 1.48664 110.34652 70 ft 13 kts 71°
2026-04-15 02:15 1.48697 110.34737 74 ft 14 kts 69°
2026-04-15 02:16 1.48736 110.34832 69 ft 16 kts 67°
2026-04-15 02:16 1.48777 110.34943 65 ft 18 kts 70°
2026-04-15 02:16 1.48844 110.35107 67 ft 20 kts 66°
2026-04-15 02:16 1.48879 110.35198 60 ft 18 kts 70°
2026-04-15 02:17 1.48929 110.35319 62 ft 20 kts 66°
2026-04-15 02:17 1.48983 110.35448 59 ft 20 kts 71°
2026-04-15 02:17 1.49030 110.35578 63 ft 20 kts 66°
2026-04-15 02:17 1.49083 110.35709 58 ft 21 kts 68°
2026-04-15 02:18 1.49139 110.35849 57 ft 23 kts 67°
2026-04-15 02:18 1.49200 110.36002 51 ft 24 kts 68°
2026-04-15 02:18 1.49264 110.36161 53 ft 24 kts 66°
2026-04-15 02:18 1.49322 110.36308 51 ft 22 kts 68°
2026-04-15 02:19 1.49381 110.36454 50 ft 23 kts 67°
2026-04-15 02:19 1.49438 110.36599 50 ft 22 kts 68°
2026-04-15 02:19 1.49482 110.36743 50 ft 22 kts 92°
2026-04-15 02:19 1.49403 110.36805 48 ft 12 kts 159°
2026-04-15 02:20 1.49331 110.36792 50 ft 13 kts 242°
2026-04-15 02:20 1.49317 110.36756 50 ft 0 kts 245°
2026-04-15 02:21 1.49294 110.36701 50 ft 38 kts 246°
2026-04-15 02:21 1.49084 110.36171 56 ft 124 kts 248°
2026-04-15 02:21 1.48707 110.35174 238 ft 178 kts 251°
2026-04-15 02:21 1.48282 110.33885 711 ft 210 kts 258°
2026-04-15 02:22 1.48089 110.32427 1462 ft 208 kts 274°
2026-04-15 02:22 1.48415 110.31047 2317 ft 210 kts 287°
2026-04-15 02:22 1.48874 110.29592 2492 ft 230 kts 288°
2026-04-15 02:23 1.49912 110.26275 3384 ft 266 kts 287°
2026-04-15 02:23 1.50445 110.24501 4322 ft 265 kts 287°
2026-04-15 02:23 1.50967 110.22723 4783 ft 266 kts 286°
2026-04-15 02:23 1.51479 110.20936 4986 ft 271 kts 285°
2026-04-15 02:24 1.51995 110.19111 4996 ft 273 kts 285°
2026-04-15 02:24 1.52509 110.17270 5320 ft 277 kts 285°
2026-04-15 02:24 1.53023 110.15414 6295 ft 275 kts 285°
2026-04-15 02:24 1.53530 110.13572 7195 ft 276 kts 284°
2026-04-15 02:25 1.54039 110.11713 8011 ft 280 kts 284°
2026-04-15 02:25 1.54555 110.09824 8830 ft 283 kts 284°
2026-04-15 02:25 1.55077 110.07908 9676 ft 288 kts 284°
2026-04-15 02:25 1.55605 110.05965 10390 ft 295 kts 284°
2026-04-15 02:26 1.56165 110.03901 10591 ft 321 kts 284°
2026-04-15 02:26 1.56767 110.01678 10887 ft 340 kts 284°
2026-04-15 02:26 1.57367 109.99465 11477 ft 347 kts 285°
2026-04-15 02:26 1.58003 109.97124 12186 ft 351 kts 285°
2026-04-15 02:27 1.58644 109.94759 12899 ft 354 kts 285°
2026-04-15 02:27 1.59293 109.92369 13594 ft 358 kts 285°
2026-04-15 02:27 1.59948 109.89951 14192 ft 363 kts 285°
2026-04-15 02:27 1.60611 109.87507 14798 ft 366 kts 285°
2026-04-15 02:28 1.61280 109.85037 15389 ft 370 kts 285°
2026-04-15 02:28 1.61954 109.82550 15995 ft 373 kts 285°
2026-04-15 02:28 1.62636 109.80033 16551 ft 377 kts 285°
2026-04-15 02:28 1.63091 109.78352 16920 ft 380 kts 285°
2026-04-15 02:29 1.64019 109.74926 17734 ft 383 kts 285°
2026-04-15 02:29 1.64480 109.73223 18139 ft 385 kts 285°
2026-04-15 02:29 1.66279 109.66578 19325 ft 394 kts 285°
2026-04-15 02:30 1.66997 109.63926 19796 ft 397 kts 285°
2026-04-15 02:30 1.67722 109.61247 20243 ft 401 kts 284°
2026-04-15 02:30 1.68452 109.58552 20705 ft 404 kts 285°
2026-04-15 02:30 1.69189 109.55827 21140 ft 407 kts 284°
2026-04-15 02:31 1.69932 109.53083 21566 ft 411 kts 284°
2026-04-15 02:31 1.70680 109.50319 21999 ft 414 kts 284°
2026-04-15 02:31 1.71435 109.47533 22418 ft 417 kts 284°
2026-04-15 02:31 1.72196 109.44721 22826 ft 420 kts 284°
2026-04-15 02:32 1.72961 109.41891 23220 ft 424 kts 284°
2026-04-15 02:32 1.73733 109.39039 23600 ft 427 kts 284°
2026-04-15 02:32 1.74510 109.36169 23943 ft 429 kts 284°
2026-04-15 02:32 1.75289 109.33287 24302 ft 430 kts 284°
2026-04-15 02:33 1.75807 109.31373 24534 ft 431 kts 284°
2026-04-15 02:33 1.76590 109.28477 24880 ft 433 kts 284°
2026-04-15 02:33 1.77380 109.25558 25214 ft 435 kts 284°
2026-04-15 02:33 1.78172 109.22634 25538 ft 437 kts 284°
2026-04-15 02:34 1.78968 109.19691 25861 ft 439 kts 284°
2026-04-15 02:34 1.79767 109.16738 26181 ft 441 kts 284°
2026-04-15 02:34 1.80568 109.13773 26496 ft 443 kts 285°
2026-04-15 02:34 1.81374 109.10795 26799 ft 445 kts 285°
2026-04-15 02:35 1.82185 109.07794 27058 ft 448 kts 285°
2026-04-15 02:35 1.83000 109.04779 27348 ft 450 kts 284°
2026-04-15 02:35 1.83817 109.01758 27657 ft 452 kts 285°
2026-04-15 02:35 1.84609 108.98831 27932 ft 454 kts 285°
2026-04-15 02:36 1.85433 108.95782 28209 ft 455 kts 285°
2026-04-15 02:36 1.86260 108.92723 28480 ft 457 kts 285°
2026-04-15 02:36 1.87092 108.89645 28747 ft 459 kts 285°
2026-04-15 02:36 1.87927 108.86556 29011 ft 461 kts 285°
2026-04-15 02:37 1.88764 108.83459 29268 ft 463 kts 285°
2026-04-15 02:37 1.89606 108.80343 29523 ft 465 kts 285°
2026-04-15 02:37 1.90446 108.77232 29765 ft 466 kts 285°
2026-04-15 02:37 1.91298 108.74081 29931 ft 470 kts 285°
2026-04-15 02:38 1.92152 108.70919 30129 ft 472 kts 285°
2026-04-15 02:38 1.92997 108.67791 30348 ft 473 kts 285°
2026-04-15 02:38 1.93853 108.64620 30573 ft 473 kts 285°
2026-04-15 02:38 1.94724 108.61397 30779 ft 475 kts 285°
2026-04-15 02:39 1.95586 108.58201 30964 ft 476 kts 285°
2026-04-15 02:39 1.96437 108.55051 31229 ft 476 kts 285°
2026-04-15 02:39 1.97297 108.51867 31549 ft 474 kts 285°
2026-04-15 02:39 1.98157 108.48691 31875 ft 472 kts 285°
2026-04-15 02:40 1.99032 108.45532 32139 ft 472 kts 285°
2026-04-15 02:40 1.99920 108.42373 32411 ft 472 kts 285°
2026-04-15 02:40 2.00810 108.39215 32583 ft 474 kts 285°
2026-04-15 02:40 2.01706 108.36038 32845 ft 474 kts 285°
2026-04-15 02:41 2.02595 108.32875 33202 ft 472 kts 285°
2026-04-15 02:41 2.03480 108.29724 33553 ft 470 kts 285°
2026-04-15 02:41 2.04360 108.26582 33828 ft 470 kts 285°
2026-04-15 02:41 2.05241 108.23434 34063 ft 470 kts 285°
2026-04-15 02:42 2.06122 108.20284 34308 ft 470 kts 285°
2026-04-15 02:42 2.07001 108.17141 34596 ft 468 kts 285°
2026-04-15 02:42 2.07877 108.14011 34896 ft 467 kts 285°
2026-04-15 02:42 2.08749 108.10893 35164 ft 466 kts 285°
2026-04-15 02:43 2.09620 108.07778 35408 ft 465 kts 285°
2026-04-15 02:43 2.10491 108.04665 35630 ft 465 kts 285°
2026-04-15 02:43 2.11359 108.01561 35880 ft 463 kts 285°
2026-04-15 02:44 2.13056 107.95490 35952 ft 465 kts 285°
2026-04-15 02:44 2.14799 107.89258 35954 ft 464 kts 285°
2026-04-15 02:45 2.16530 107.83061 35953 ft 462 kts 285°
2026-04-15 02:45 2.18245 107.76885 35952 ft 461 kts 285°
2026-04-15 02:46 2.19955 107.70714 35948 ft 460 kts 285°
2026-04-15 02:46 2.21650 107.64599 35947 ft 460 kts 285°
2026-04-15 02:47 2.23359 107.58430 35944 ft 461 kts 285°
2026-04-15 02:47 2.25071 107.52254 35950 ft 462 kts 285°
2026-04-15 02:48 2.26789 107.46053 35951 ft 463 kts 285°
2026-04-15 02:48 2.28512 107.39836 35950 ft 465 kts 285°
2026-04-15 02:49 2.30239 107.33600 35949 ft 466 kts 285°
2026-04-15 02:49 2.31969 107.27355 35947 ft 467 kts 285°
2026-04-15 02:50 2.33705 107.21084 35947 ft 468 kts 285°
2026-04-15 02:50 2.35443 107.14807 35946 ft 468 kts 285°
2026-04-15 02:51 2.37179 107.08534 35943 ft 468 kts 285°
2026-04-15 02:51 2.38916 107.02252 35945 ft 468 kts 285°
2026-04-15 02:52 2.40619 106.96091 35946 ft 468 kts 285°
2026-04-15 02:52 2.42352 106.89817 35945 ft 468 kts 285°
2026-04-15 02:53 2.44083 106.83550 35944 ft 467 kts 285°
2026-04-15 02:53 2.45812 106.77288 35945 ft 467 kts 285°
2026-04-15 02:54 2.47540 106.71029 35945 ft 467 kts 285°
2026-04-15 02:54 2.49265 106.64776 35945 ft 466 kts 285°
2026-04-15 02:55 2.50990 106.58526 35947 ft 466 kts 285°
2026-04-15 02:55 2.52713 106.52279 35944 ft 466 kts 285°
2026-04-15 02:56 2.54435 106.46027 35944 ft 466 kts 285°
2026-04-15 02:56 2.56155 106.39778 35946 ft 466 kts 285°
2026-04-15 02:57 2.57869 106.33576 35945 ft 466 kts 285°
2026-04-15 02:57 2.59595 106.27336 35946 ft 466 kts 285°
2026-04-15 02:58 2.61320 106.21091 35945 ft 466 kts 285°
2026-04-15 02:58 2.63042 106.14856 35943 ft 465 kts 285°
2026-04-15 02:59 2.64766 106.08613 35940 ft 465 kts 285°
2026-04-15 02:59 2.66489 106.02371 35940 ft 465 kts 285°
2026-04-15 03:00 2.68175 105.96262 35934 ft 466 kts 285°
2026-04-15 03:00 2.69898 105.90018 35946 ft 466 kts 285°
2026-04-15 03:01 2.71622 105.83766 35946 ft 466 kts 285°
2026-04-15 03:01 2.73345 105.77518 35940 ft 467 kts 285°
2026-04-15 03:02 2.75074 105.71249 35939 ft 467 kts 285°
2026-04-15 03:02 2.76806 105.64984 35937 ft 468 kts 285°
2026-04-15 03:03 2.78539 105.58716 35939 ft 468 kts 285°
2026-04-15 03:03 2.80272 105.52445 35939 ft 468 kts 285°
2026-04-15 03:04 2.82004 105.46174 35937 ft 467 kts 285°
2026-04-15 03:04 2.83734 105.39910 35936 ft 467 kts 285°
2026-04-15 03:05 2.85463 105.33648 35941 ft 467 kts 285°
2026-04-15 03:05 2.87178 105.27431 35940 ft 467 kts 284°
2026-04-15 03:06 2.88909 105.21174 35934 ft 466 kts 285°
2026-04-15 03:06 2.90658 105.14942 35935 ft 465 kts 284°
2026-04-15 03:07 2.92381 105.08701 35942 ft 465 kts 284°
2026-04-15 03:07 2.94095 105.02478 35939 ft 464 kts 284°
2026-04-15 03:08 2.95776 104.96385 35942 ft 463 kts 284°
2026-04-15 03:08 2.97490 104.90174 35935 ft 463 kts 284°
2026-04-15 03:09 2.99203 104.83968 35936 ft 463 kts 284°
2026-04-15 03:09 3.00910 104.77782 35932 ft 462 kts 284°
2026-04-15 03:10 3.02569 104.71569 35929 ft 462 kts 278°
2026-04-15 03:10 3.02603 104.68385 35946 ft 457 kts 259°
2026-04-15 03:10 3.01750 104.65343 35930 ft 455 kts 245°
2026-04-15 03:10 3.00154 104.62630 35935 ft 452 kts 231°
2026-04-15 03:11 2.98155 104.60200 35939 ft 452 kts 228°
2026-04-15 03:11 2.94049 104.55411 35931 ft 454 kts 229°
2026-04-15 03:12 2.90041 104.50526 35928 ft 456 kts 233°
2026-04-15 03:12 2.88509 104.47749 35937 ft 458 kts 249°
2026-04-15 03:12 2.87717 104.44663 35936 ft 460 kts 262°
2026-04-15 03:12 2.87678 104.41464 35944 ft 462 kts 274°
2026-04-15 03:13 2.88014 104.38261 35945 ft 463 kts 275°
2026-04-15 03:13 2.88748 104.31896 35935 ft 465 kts 275°
2026-04-15 03:14 2.89418 104.25457 35936 ft 466 kts 274°
2026-04-15 03:14 2.90040 104.19008 35938 ft 466 kts 275°
2026-04-15 03:15 2.90662 104.12551 35933 ft 466 kts 275°
2026-04-15 03:15 2.90790 104.06092 35946 ft 464 kts 265°
2026-04-15 03:16 2.90297 103.99779 35932 ft 464 kts 264°
2026-04-15 03:16 2.89877 103.94435 35936 ft 463 kts 265°
2026-04-15 03:17 2.89354 103.86921 35935 ft 463 kts 265°
2026-04-15 03:17 2.88930 103.80503 35934 ft 462 kts 265°
2026-04-15 03:18 2.88506 103.74089 35933 ft 461 kts 265°
2026-04-15 03:18 2.88079 103.67691 35934 ft 461 kts 265°
2026-04-15 03:19 2.87712 103.62378 35931 ft 460 kts 264°
2026-04-15 03:19 2.87117 103.54919 35928 ft 460 kts 264°
2026-04-15 03:20 2.86597 103.48542 35932 ft 460 kts 264°
2026-04-15 03:20 2.86082 103.42141 35391 ft 467 kts 264°
2026-04-15 03:20 2.85911 103.40001 35026 ft 465 kts 264°
2026-04-15 03:21 2.85655 103.36774 34396 ft 465 kts 264°
2026-04-15 03:21 2.85054 103.29219 32929 ft 463 kts 264°
2026-04-15 03:21 2.84886 103.27100 32590 ft 461 kts 264°
2026-04-15 03:22 2.84548 103.22854 31934 ft 455 kts 264°
2026-04-15 03:22 2.84382 103.20769 31617 ft 453 kts 264°
2026-04-15 03:22 2.84132 103.17636 31141 ft 450 kts 265°
2026-04-15 03:22 2.83801 103.13485 30492 ft 447 kts 265°
2026-04-15 03:23 2.83637 103.11433 30181 ft 445 kts 265°
2026-04-15 03:23 2.83391 103.08348 29638 ft 444 kts 265°
2026-04-15 03:23 2.83146 103.05284 29125 ft 440 kts 265°
2026-04-15 03:23 2.82904 103.02245 28628 ft 436 kts 265°
2026-04-15 03:24 2.82673 102.99352 28165 ft 433 kts 265°
2026-04-15 03:24 2.82434 102.96362 27692 ft 430 kts 265°
2026-04-15 03:24 2.82197 102.93395 27220 ft 426 kts 265°
2026-04-15 03:24 2.81961 102.90453 26746 ft 423 kts 265°
2026-04-15 03:25 2.81727 102.87529 26284 ft 420 kts 265°
2026-04-15 03:25 2.81495 102.84623 25812 ft 418 kts 265°
2026-04-15 03:25 2.81264 102.81734 25335 ft 416 kts 265°
2026-04-15 03:25 2.81033 102.78857 24873 ft 414 kts 265°
2026-04-15 03:26 2.80804 102.75996 24402 ft 412 kts 265°
2026-04-15 03:26 2.80576 102.73141 23941 ft 410 kts 265°
2026-04-15 03:26 2.80348 102.70302 23475 ft 409 kts 265°
2026-04-15 03:26 2.80050 102.67484 22939 ft 406 kts 257°
2026-04-15 03:27 2.79048 102.64889 22657 ft 397 kts 243°
2026-04-15 03:27 2.77793 102.62455 22355 ft 390 kts 242°
2026-04-15 03:27 2.76544 102.60069 22069 ft 385 kts 242°
2026-04-15 03:27 2.75311 102.57708 21792 ft 382 kts 242°
2026-04-15 03:28 2.74082 102.55341 21533 ft 386 kts 242°
2026-04-15 03:28 2.72847 102.52947 21260 ft 390 kts 242°
2026-04-15 03:28 2.71611 102.50538 20975 ft 388 kts 242°
2026-04-15 03:28 2.70388 102.48146 20704 ft 384 kts 243°
2026-04-15 03:29 2.69178 102.45777 20425 ft 382 kts 243°
2026-04-15 03:29 2.67974 102.43416 20159 ft 381 kts 242°
2026-04-15 03:29 2.66771 102.41056 19888 ft 380 kts 242°
2026-04-15 03:29 2.65576 102.38712 19616 ft 376 kts 242°
2026-04-15 03:30 2.64393 102.36391 19344 ft 373 kts 242°
2026-04-15 03:30 2.63238 102.34124 19086 ft 370 kts 242°
2026-04-15 03:30 2.62073 102.31839 18819 ft 367 kts 242°
2026-04-15 03:30 2.60916 102.29569 18541 ft 366 kts 242°
2026-04-15 03:31 2.59764 102.27309 18289 ft 364 kts 242°
2026-04-15 03:31 2.58613 102.25051 17985 ft 364 kts 242°
2026-04-15 03:31 2.57465 102.22802 17715 ft 362 kts 242°
2026-04-15 03:31 2.56322 102.20562 17445 ft 362 kts 242°
2026-04-15 03:32 2.55180 102.18321 17169 ft 361 kts 242°
2026-04-15 03:32 2.54043 102.16093 16910 ft 360 kts 242°
2026-04-15 03:32 2.52908 102.13867 16659 ft 359 kts 242°
2026-04-15 03:32 2.51776 102.11648 16402 ft 358 kts 242°
2026-04-15 03:33 2.50646 102.09433 16143 ft 357 kts 242°
2026-04-15 03:33 2.49519 102.07224 15884 ft 356 kts 242°
2026-04-15 03:33 2.48394 102.05019 15638 ft 355 kts 242°
2026-04-15 03:33 2.47275 102.02824 15384 ft 354 kts 242°
2026-04-15 03:34 2.46158 102.00636 15128 ft 353 kts 242°
2026-04-15 03:34 2.45095 101.98553 14885 ft 351 kts 242°
2026-04-15 03:34 2.43988 101.96384 14635 ft 350 kts 242°
2026-04-15 03:34 2.42884 101.94220 14387 ft 348 kts 242°
2026-04-15 03:35 2.41785 101.92067 14133 ft 347 kts 242°
2026-04-15 03:35 2.40691 101.89922 13887 ft 345 kts 242°
2026-04-15 03:35 2.39602 101.87788 13609 ft 344 kts 242°
2026-04-15 03:35 2.38517 101.85661 13365 ft 342 kts 242°
2026-04-15 03:36 2.37437 101.83546 13103 ft 340 kts 242°
2026-04-15 03:36 2.36365 101.81444 12851 ft 339 kts 242°
2026-04-15 03:36 2.35297 101.79352 12601 ft 337 kts 242°
2026-04-15 03:36 2.34236 101.77272 12355 ft 335 kts 242°
2026-04-15 03:37 2.33194 101.75231 12126 ft 333 kts 242°
2026-04-15 03:37 2.32153 101.73192 11882 ft 326 kts 242°
2026-04-15 03:37 2.31132 101.71190 11648 ft 320 kts 242°
2026-04-15 03:37 2.30132 101.69233 11430 ft 313 kts 242°
2026-04-15 03:38 2.29186 101.67299 11213 ft 307 kts 249°
2026-04-15 03:38 2.28894 101.65210 11004 ft 303 kts 275°
2026-04-15 03:38 2.29487 101.63226 10940 ft 294 kts 296°
2026-04-15 03:38 2.30677 101.61624 10929 ft 283 kts 314°
2026-04-15 03:39 2.32082 101.60266 10931 ft 280 kts 315°
2026-04-15 03:39 2.33498 101.58925 10936 ft 281 kts 315°
2026-04-15 03:39 2.34916 101.57572 10938 ft 282 kts 315°
2026-04-15 03:39 2.36334 101.56207 10940 ft 283 kts 315°
2026-04-15 03:40 2.37751 101.54840 10936 ft 284 kts 315°
2026-04-15 03:40 2.38230 101.54377 10925 ft 284 kts 315°
2026-04-15 03:40 2.41878 101.50875 10750 ft 286 kts 315°
2026-04-15 03:41 2.43305 101.49506 10665 ft 283 kts 315°
2026-04-15 03:41 2.44724 101.48145 10575 ft 282 kts 315°
2026-04-15 03:41 2.46133 101.46792 10497 ft 280 kts 315°
2026-04-15 03:41 2.47533 101.45448 10410 ft 279 kts 315°
2026-04-15 03:42 2.48927 101.44109 10329 ft 277 kts 315°
2026-04-15 03:42 2.50317 101.42774 10247 ft 276 kts 315°
2026-04-15 03:42 2.51702 101.41444 10165 ft 275 kts 315°
2026-04-15 03:42 2.53081 101.40119 10084 ft 275 kts 315°
2026-04-15 03:43 2.54457 101.38797 10003 ft 274 kts 315°
2026-04-15 03:43 2.55826 101.37481 9921 ft 273 kts 315°
2026-04-15 03:43 2.57192 101.36168 9838 ft 272 kts 315°
2026-04-15 03:43 2.58561 101.34852 9761 ft 274 kts 315°
2026-04-15 03:44 2.59942 101.33525 9674 ft 278 kts 315°
2026-04-15 03:44 2.61340 101.32182 9583 ft 278 kts 315°
2026-04-15 03:44 2.62733 101.30844 9496 ft 277 kts 315°
2026-04-15 03:44 2.64129 101.29521 9400 ft 276 kts 319°
2026-04-15 03:45 2.65831 101.28670 9289 ft 276 kts 350°
2026-04-15 03:45 2.67727 101.28713 9237 ft 274 kts 13°
2026-04-15 03:45 2.69559 101.29209 9169 ft 272 kts 19°
2026-04-15 03:45 2.71159 101.30177 9060 ft 270 kts 49°
2026-04-15 03:46 2.72081 101.31781 8983 ft 266 kts 76°
2026-04-15 03:46 2.72208 101.33602 8915 ft 264 kts 100°
2026-04-15 03:46 2.71642 101.35332 8848 ft 262 kts 116°
2026-04-15 03:46 2.70839 101.36977 8769 ft 264 kts 118°
2026-04-15 03:47 2.70010 101.38622 8685 ft 266 kts 118°
2026-04-15 03:47 2.69175 101.40283 8613 ft 268 kts 117°
2026-04-15 03:47 2.68342 101.41953 8522 ft 269 kts 117°
2026-04-15 03:47 2.67512 101.43627 8444 ft 269 kts 117°
2026-04-15 03:48 2.66694 101.45284 8361 ft 269 kts 117°
2026-04-15 03:48 2.65870 101.46961 8275 ft 268 kts 117°
2026-04-15 03:48 2.65049 101.48633 8194 ft 268 kts 117°
2026-04-15 03:48 2.64230 101.50303 8116 ft 267 kts 117°
2026-04-15 03:49 2.63413 101.51969 8033 ft 266 kts 117°
2026-04-15 03:49 2.62905 101.53738 7926 ft 268 kts 92°
2026-04-15 03:49 2.62965 101.55590 7883 ft 266 kts 89°
2026-04-15 03:49 2.63033 101.57443 7796 ft 266 kts 89°
2026-04-15 03:50 2.63091 101.59292 7718 ft 266 kts 89°
2026-04-15 03:50 2.63145 101.61140 7631 ft 266 kts 89°
2026-04-15 03:50 2.63190 101.62987 7551 ft 265 kts 92°
2026-04-15 03:50 2.62742 101.64743 7445 ft 262 kts 123°
2026-04-15 03:51 2.61522 101.66067 7405 ft 258 kts 143°
2026-04-15 03:51 2.60078 101.67132 7314 ft 259 kts 136°
2026-04-15 03:51 2.59073 101.68617 7250 ft 258 kts 123°
2026-04-15 03:51 2.57784 101.69799 7130 ft 251 kts 158°
2026-04-15 03:52 2.56180 101.70368 7088 ft 240 kts 159°
2026-04-15 03:52 2.54691 101.71063 7004 ft 234 kts 152°
2026-04-15 03:52 2.53282 101.71865 6910 ft 233 kts 152°
2026-04-15 03:52 2.51869 101.72655 6805 ft 234 kts 151°
2026-04-15 03:53 2.50465 101.73484 6694 ft 235 kts 149°
2026-04-15 03:53 2.49080 101.74351 6576 ft 235 kts 148°
2026-04-15 03:53 2.47709 101.75242 6449 ft 235 kts 147°
2026-04-15 03:53 2.46344 101.76145 6331 ft 235 kts 147°
2026-04-15 03:54 2.44983 101.77052 6209 ft 235 kts 147°
2026-04-15 03:54 2.43624 101.77963 6088 ft 235 kts 145°
2026-04-15 03:54 2.42543 101.79169 5935 ft 237 kts 113°
2026-04-15 03:55 2.42904 101.82266 5736 ft 235 kts 58°
2026-04-15 03:55 2.43785 101.83563 5629 ft 234 kts 56°
2026-04-15 03:55 2.44706 101.84889 5498 ft 235 kts 56°
2026-04-15 03:55 2.45628 101.86227 5388 ft 232 kts 56°
2026-04-15 03:56 2.46527 101.87543 5255 ft 227 kts 56°
2026-04-15 03:56 2.47498 101.88774 5132 ft 226 kts 38°
2026-04-15 03:56 2.48945 101.89288 5023 ft 225 kts 356°
2026-04-15 03:56 2.50391 101.88763 4948 ft 224 kts 324°
2026-04-15 03:57 2.51681 101.87867 4850 ft 229 kts 325°
2026-04-15 03:57 2.53009 101.86967 4757 ft 231 kts 325°
2026-04-15 03:57 2.54333 101.86071 4647 ft 231 kts 325°
2026-04-15 03:57 2.55543 101.85253 4398 ft 232 kts 326°
2026-04-15 03:58 2.56888 101.84344 4099 ft 234 kts 326°
2026-04-15 03:58 2.58244 101.83428 3804 ft 236 kts 325°
2026-04-15 03:58 2.59610 101.82506 3521 ft 237 kts 326°
2026-04-15 03:58 2.60966 101.81590 3220 ft 233 kts 326°
2026-04-15 03:59 2.62287 101.80698 2913 ft 223 kts 326°
2026-04-15 03:59 2.63529 101.79859 2640 ft 209 kts 326°
2026-04-15 03:59 2.64682 101.79080 2412 ft 189 kts 325°
2026-04-15 03:59 2.65719 101.78380 2138 ft 171 kts 325°
2026-04-15 04:00 2.66653 101.77750 1968 ft 151 kts 325°
2026-04-15 04:00 2.67519 101.77164 1752 ft 148 kts 325°
2026-04-15 04:00 2.68367 101.76590 1561 ft 147 kts 324°
2026-04-15 04:00 2.69198 101.76031 1373 ft 146 kts 325°
2026-04-15 04:01 2.70053 101.75453 1190 ft 147 kts 324°
2026-04-15 04:01 2.70892 101.74886 1012 ft 147 kts 325°
2026-04-15 04:01 2.71734 101.74317 834 ft 146 kts 325°
2026-04-15 04:01 2.72571 101.73752 658 ft 144 kts 326°
2026-04-15 04:02 2.73403 101.73189 474 ft 144 kts 326°
2026-04-15 04:02 2.74235 101.72629 270 ft 144 kts 326°
2026-04-15 04:02 2.75061 101.72070 90 ft 142 kts 323°
2026-04-15 04:02 2.75733 101.71591 71 ft 72 kts 329°
2026-04-15 04:03 2.76099 101.71362 65 ft 54 kts 325°
2026-04-15 04:03 2.76351 101.71184 67 ft 43 kts 324°
2026-04-15 04:03 2.76516 101.71035 64 ft 18 kts 304°
2026-04-15 04:03 2.76577 101.70917 62 ft 20 kts 287°
2026-04-15 04:04 2.76518 101.70856 64 ft 13 kts 176°
2026-04-15 04:04 2.76439 101.70901 58 ft 13 kts 147°
2026-04-15 04:04 2.76385 101.70936 62 ft 14 kts 147°
2026-04-15 04:04 2.76300 101.70991 64 ft 15 kts 152°
2026-04-15 04:05 2.76201 101.71031 62 ft 15 kts 172°
2026-04-15 04:05 2.76097 101.71046 60 ft 15 kts 172°
2026-04-15 04:05 2.76003 101.71079 63 ft 15 kts 148°
2026-04-15 04:05 2.75913 101.71141 64 ft 16 kts 146°
2026-04-15 04:06 2.75821 101.71202 71 ft 16 kts 142°
2026-04-15 04:06 2.75731 101.71264 69 ft 16 kts 146°
2026-04-15 04:06 2.75624 101.71311 68 ft 18 kts 196°
2026-04-15 04:06 2.75547 101.71218 68 ft 17 kts 235°
2026-04-15 04:07 2.75479 101.71116 69 ft 18 kts 237°
2026-04-15 04:07 2.75406 101.71005 69 ft 20 kts 237°
2026-04-15 04:07 2.75346 101.70916 70 ft 8 kts 237°
2026-04-15 04:07 2.75362 101.70868 72 ft 9 kts 324°
2026-04-15 04:08 2.75392 101.70847 66 ft 1 kts 326°
2026-04-15 04:08 2.75396 101.70844 65 ft 0 kts 325°
2026-04-15 04:08 2.75398 101.70843 65 ft 0 kts 326°
2026-04-15 04:08 2.75400 101.70842 64 ft 0 kts 326°
2026-04-15 04:09 2.75402 101.70841 65 ft 0 kts 325°